Simultaneous Nadir Overpasses (SNOs) Predictions

Prediction of SNOs between FY3D and METOP-C Satellite Orbit:

Table of predicted SNOs for the next 14.0 days since TLE Epoch: 1/1/2022
Index Date (FY3D) Time (FY3D) Lat,Lon (FY3D) SZA (FY3D ) Date (METOP-C) Time (METOP-C) Lat,Lon (METOP-C) SZA (METOP-C ) Distance(km) Time Diff (sec)
1 01/07/2022 23:23:31 74.32,-178.12 96.68 01/07/2022 23:24:38 74.26,-175.59 96.53 76.63 67
2 01/08/2022 00:14:13 -74.15, -10.36 83.52 01/08/2022 00:15:23 -74.07, -8.74 83.66 50.12 70
3 01/08/2022 01:04:55 73.96, 157.43 96.28 01/08/2022 01:06:07 73.89, 158.17 96.18 23.83 72
4 01/08/2022 01:55:37 -73.78, -34.83 83.93 01/08/2022 01:56:51 -73.75, -34.84 83.96 3.00 74
5 01/08/2022 02:46:23 73.78, 132.47 96.08 01/08/2022 02:47:31 73.77, 132.54 96.06 2.62 68
6 01/08/2022 03:37:08 -73.76, -60.15 83.96 01/08/2022 03:38:12 -73.78, -60.11 83.94 3.32 64
7 01/08/2022 04:27:54 73.76, 107.14 96.05 01/08/2022 04:28:53 73.75, 107.15 96.03 0.83 59
8 01/08/2022 05:18:39 -73.73, -85.48 84.00 01/08/2022 05:19:34 -73.76, -85.50 83.97 3.57 55
9 01/08/2022 06:09:25 73.74, 81.82 96.01 01/08/2022 06:10:15 73.73, 81.77 96.00 1.73 50
10 01/08/2022 07:00:11 -73.76,-110.92 83.98 01/08/2022 07:00:56 -73.74,-110.88 84.00 1.82 45
11 01/08/2022 07:50:57 73.76, 56.38 96.03 01/08/2022 07:51:36 73.76, 56.50 96.02 3.66 39
12 01/08/2022 08:41:42 -73.73,-136.24 84.01 01/08/2022 08:42:18 -73.72,-136.27 84.03 1.30 36
13 01/08/2022 09:32:28 73.74, 31.06 95.99 01/08/2022 09:32:58 73.74, 31.11 95.99 1.78 30
14 01/08/2022 10:23:13 -73.71,-161.56 84.05 01/08/2022 10:23:40 -73.70,-161.65 84.05 2.89 27
15 01/08/2022 11:13:59 73.71, 5.73 95.96 01/08/2022 11:14:20 73.72, 5.72 95.97 1.17 21
16 01/08/2022 12:04:45 -73.73, 173.00 84.03 01/08/2022 12:05:01 -73.73, 173.08 84.04 2.49 16
17 01/08/2022 12:55:30 73.69, -19.59 95.92 01/08/2022 12:55:42 73.70, -19.66 95.94 2.82 12
18 01/08/2022 13:46:16 -73.71, 147.67 84.07 01/08/2022 13:46:23 -73.71, 147.69 84.06 0.77 7
19 01/08/2022 14:37:02 73.71, -45.03 95.94 01/08/2022 14:37:04 73.68, -45.05 95.91 3.52 2
20 01/08/2022 15:27:47 -73.68, 122.35 84.10 01/08/2022 15:27:45 -73.69, 122.30 84.09 1.80 2
21 01/08/2022 16:18:33 73.69, -70.35 95.90 01/08/2022 16:18:25 73.71, -70.32 95.93 2.74 8
22 01/08/2022 17:09:18 -73.66, 97.03 84.14 01/08/2022 17:09:07 -73.67, 96.92 84.12 3.75 11
23 01/08/2022 18:00:04 73.67, -95.68 95.87 01/08/2022 17:59:47 73.69, -95.71 95.90 3.16 17
24 01/08/2022 18:50:50 -73.69, 71.59 84.12 01/08/2022 18:50:28 -73.70, 71.65 84.10 2.84 22
25 01/08/2022 19:41:36 73.69,-121.12 95.89 01/08/2022 19:41:09 73.67,-121.09 95.87 2.17 27
26 01/08/2022 20:32:21 -73.66, 46.26 84.16 01/08/2022 20:31:50 -73.68, 46.26 84.13 2.58 31
27 01/08/2022 21:23:07 73.67,-146.44 95.85 01/08/2022 21:22:31 73.65,-146.48 95.84 2.02 36
28 01/08/2022 22:13:53 -73.69, 20.82 84.14 01/08/2022 22:13:12 -73.67, 20.88 84.16 2.92 41
29 01/08/2022 23:04:38 73.64,-171.76 95.82 01/08/2022 23:03:53 73.63,-171.87 95.82 3.42 45
30 01/08/2022 23:55:24 -73.66, -4.50 84.17 01/08/2022 23:54:34 -73.65, -4.51 84.18 1.93 50
31 01/09/2022 00:46:10 73.67, 162.80 95.83 01/09/2022 00:45:14 73.66, 162.86 95.83 2.20 56
32 01/09/2022 01:36:55 -73.64, -29.82 84.21 01/09/2022 01:35:56 -73.63, -29.89 84.21 2.66 59
33 01/09/2022 02:27:41 73.64, 137.47 95.80 01/09/2022 02:26:36 73.64, 137.48 95.81 0.21 65
34 01/09/2022 03:18:27 -73.66, -55.26 84.19 01/09/2022 03:17:17 -73.66, -55.16 84.19 3.21 70
35 01/09/2022 04:09:12 73.62, 112.15 95.76 01/09/2022 04:07:58 73.62, 112.09 95.78 1.87 74
36 01/09/2022 04:59:55 -73.49, -80.24 84.39 01/09/2022 04:58:42 -73.49, -80.89 84.36 20.71 73
37 01/09/2022 05:50:37 73.30, 87.51 95.41 01/09/2022 05:49:26 73.30, 86.02 95.47 47.69 71
38 01/09/2022 06:41:19 -73.12,-104.78 84.79 01/09/2022 06:40:11 -73.12,-107.06 84.70 73.61 68



Historial Predications of SNOs between FY3D and METOP-C
